TimeCST,TemperatureF,Dew PointF,Humidity,Sea Level PressureIn,VisibilityMPH,Wind Direction,Wind SpeedMPH,Gust SpeedMPH,PrecipitationIn,Events,Conditions,WindDirDegrees,DateUTC
12:15 AM,35.6,28.4,75,29.63,10.0,West,20.7,26.5,N/A,,Overcast,280,2013-02-14 06:15:00
12:35 AM,35.6,28.4,75,29.64,10.0,WNW,25.3,28.8,N/A,,Overcast,290,2013-02-14 06:35:00
12:55 AM,35.6,28.4,75,29.65,10.0,WNW,25.3,32.2,N/A,,Overcast,290,2013-02-14 06:55:00
1:14 AM,35.6,28.4,75,29.66,10.0,WNW,21.9,28.8,N/A,,Overcast,300,2013-02-14 07:14:00
1:35 AM,35.6,28.4,75,29.67,7.0,WNW,19.6,26.5,N/A,,Overcast,300,2013-02-14 07:35:00
1:55 AM,35.6,30.2,81,29.68,7.0,WNW,21.9,27.6,N/A,,Overcast,300,2013-02-14 07:55:00
2:15 AM,35.6,30.2,81,29.69,7.0,WNW,20.7,26.5,N/A,,Overcast,300,2013-02-14 08:15:00
2:35 AM,33.8,28.4,81,29.70,7.0,WNW,21.9,28.8,N/A,,Overcast,300,2013-02-14 08:35:00
2:55 AM,33.8,28.4,81,29.72,5.0,WNW,18.4,29.9,N/A,,Haze,300,2013-02-14 08:55:00
3:15 AM,33.8,28.4,81,29.73,4.0,WNW,20.7,27.6,N/A,,Haze,300,2013-02-14 09:15:00
3:34 AM,33.8,28.4,81,29.74,5.0,WNW,21.9,28.8,N/A,,Haze,290,2013-02-14 09:34:00
3:55 AM,33.8,28.4,81,29.75,5.0,WNW,16.1,-,N/A,,Haze,300,2013-02-14 09:55:00
4:15 AM,33.8,28.4,81,29.76,7.0,WNW,16.1,20.7,N/A,,Overcast,300,2013-02-14 10:15:00
4:34 AM,33.8,28.4,81,29.77,7.0,WNW,18.4,23.0,N/A,,Overcast,290,2013-02-14 10:34:00
4:55 AM,33.8,26.6,75,29.78,7.0,WNW,17.3,26.5,N/A,,Overcast,290,2013-02-14 10:55:00
5:15 AM,32.0,26.6,80,29.79,5.0,WNW,17.3,23.0,N/A,,Haze,300,2013-02-14 11:15:00
5:34 AM,32.0,26.6,80,29.80,7.0,WNW,17.3,23.0,N/A,,Overcast,300,2013-02-14 11:34:00
6:15 AM,32.0,26.6,80,29.82,7.0,WNW,16.1,21.9,N/A,,Overcast,300,2013-02-14 12:15:00
6:35 AM,32.0,26.6,80,29.82,10.0,WNW,15.0,-,N/A,,Overcast,300,2013-02-14 12:35:00
6:55 AM,30.2,26.6,86,29.83,10.0,WNW,10.4,-,N/A,,Mostly Cloudy,300,2013-02-14 12:55:00
7:15 AM,30.2,26.6,86,29.83,10.0,WNW,8.1,-,N/A,,Scattered Clouds,300,2013-02-14 13:15:00
7:35 AM,32.0,26.6,80,29.85,10.0,WNW,11.5,-,N/A,,Mostly Cloudy,290,2013-02-14 13:35:00
7:55 AM,32.0,26.6,80,29.85,7.0,WNW,11.5,-,N/A,,Overcast,290,2013-02-14 13:55:00
8:14 AM,30.2,24.8,80,29.85,7.0,WNW,11.5,-,N/A,,Overcast,290,2013-02-14 14:14:00
8:35 AM,30.2,26.6,86,29.86,7.0,West,12.7,-,N/A,,Overcast,270,2013-02-14 14:35:00
8:55 AM,30.2,24.8,80,29.86,10.0,West,9.2,-,N/A,,Overcast,280,2013-02-14 14:55:00
9:15 AM,30.2,24.8,80,29.86,10.0,WNW,11.5,-,N/A,,Overcast,290,2013-02-14 15:15:00
9:35 AM,32.0,24.8,75,29.87,10.0,WNW,11.5,-,N/A,,Overcast,290,2013-02-14 15:35:00
9:55 AM,32.0,24.8,75,29.87,10.0,WNW,11.5,-,N/A,,Mostly Cloudy,300,2013-02-14 15:55:00
10:14 AM,32.0,24.8,75,29.88,10.0,WNW,11.5,-,N/A,,Overcast,300,2013-02-14 16:14:00
10:35 AM,32.0,24.8,75,29.89,10.0,WNW,11.5,-,N/A,,Overcast,290,2013-02-14 16:35:00
10:55 AM,32.0,24.8,75,29.90,10.0,WNW,11.5,-,N/A,,Overcast,300,2013-02-14 16:55:00
11:15 AM,32.0,24.8,75,29.91,10.0,WNW,12.7,-,N/A,,Overcast,300,2013-02-14 17:15:00
11:35 AM,33.8,21.2,60,29.91,10.0,NW,13.8,-,N/A,,Overcast,310,2013-02-14 17:35:00
11:55 AM,32.0,23.0,69,29.92,7.0,WNW,13.8,20.7,N/A,Snow,Light Snow,300,2013-02-14 17:55:00
12:15 PM,32.0,24.8,75,29.92,10.0,NW,16.1,-,N/A,,Scattered Clouds,310,2013-02-14 18:15:00
12:35 PM,30.2,24.8,80,29.93,5.0,WNW,12.7,-,N/A,Snow,Light Snow,300,2013-02-14 18:35:00
12:55 PM,32.0,24.8,75,29.93,10.0,WNW,15.0,-,N/A,,Overcast,300,2013-02-14 18:55:00
1:15 PM,32.0,23.0,69,29.94,10.0,NW,16.1,-,N/A,,Overcast,310,2013-02-14 19:15:00
1:35 PM,32.0,21.2,64,29.94,10.0,NW,17.3,-,N/A,,Mostly Cloudy,310,2013-02-14 19:35:00
1:55 PM,30.2,23.0,75,29.95,10.0,NW,16.1,-,N/A,,Scattered Clouds,310,2013-02-14 19:55:00
2:15 PM,32.0,23.0,69,29.96,10.0,NW,16.1,-,N/A,,Scattered Clouds,310,2013-02-14 20:15:00
2:35 PM,32.0,21.2,64,29.98,10.0,NW,19.6,24.2,N/A,,Scattered Clouds,310,2013-02-14 20:35:00
2:55 PM,30.2,19.4,64,29.99,10.0,WNW,18.4,24.2,N/A,,Scattered Clouds,300,2013-02-14 20:55:00
3:15 PM,30.2,17.6,60,30.01,10.0,NW,20.7,-,N/A,,Clear,320,2013-02-14 21:15:00
3:35 PM,30.2,19.4,64,30.02,10.0,NW,19.6,27.6,N/A,,Clear,310,2013-02-14 21:35:00
3:55 PM,30.2,19.4,64,30.02,10.0,WNW,19.6,24.2,N/A,,Clear,300,2013-02-14 21:55:00
4:15 PM,28.4,17.6,64,30.04,10.0,NW,20.7,28.8,N/A,,Clear,310,2013-02-14 22:15:00
4:35 PM,28.4,15.8,59,30.06,10.0,NW,19.6,31.1,N/A,,Clear,310,2013-02-14 22:35:00
4:55 PM,26.6,17.6,69,30.07,10.0,WNW,20.7,26.5,N/A,,Clear,300,2013-02-14 22:55:00
5:15 PM,26.6,15.8,64,30.08,10.0,NW,17.3,-,N/A,,Clear,310,2013-02-14 23:15:00
5:34 PM,26.6,15.8,64,30.10,10.0,WNW,18.4,25.3,N/A,,Clear,300,2013-02-14 23:34:00
5:55 PM,24.8,12.2,59,30.11,10.0,WNW,23.0,27.6,N/A,,Clear,300,2013-02-14 23:55:00
6:15 PM,23.0,12.2,63,30.12,10.0,WNW,21.9,-,N/A,,Clear,300,2013-02-15 00:15:00
6:35 PM,23.0,10.4,59,30.14,10.0,NW,23.0,26.5,N/A,,Clear,310,2013-02-15 00:35:00
6:55 PM,21.2,12.2,68,30.15,10.0,WNW,18.4,24.2,N/A,,Clear,300,2013-02-15 00:55:00
7:15 PM,21.2,10.4,63,30.16,10.0,WNW,19.6,28.8,N/A,,Clear,300,2013-02-15 01:15:00
7:35 PM,19.4,10.4,68,30.17,10.0,WNW,18.4,27.6,N/A,,Clear,300,2013-02-15 01:35:00
7:54 PM,19.4,10.4,68,30.18,10.0,WNW,18.4,24.2,N/A,,Clear,300,2013-02-15 01:54:00
8:15 PM,17.6,8.6,68,30.18,10.0,WNW,19.6,25.3,N/A,,Clear,300,2013-02-15 02:15:00
8:35 PM,17.6,8.6,68,30.19,10.0,WNW,18.4,23.0,N/A,,Clear,300,2013-02-15 02:35:00
8:55 PM,17.6,8.6,68,30.19,10.0,WNW,18.4,24.2,N/A,,Clear,300,2013-02-15 02:55:00
9:15 PM,17.6,6.8,63,30.20,10.0,WNW,20.7,26.5,N/A,,Clear,300,2013-02-15 03:15:00
9:35 PM,15.8,6.8,68,30.20,10.0,WNW,18.4,24.2,N/A,,Clear,300,2013-02-15 03:35:00
9:54 PM,15.8,6.8,68,30.21,10.0,WNW,17.3,-,N/A,,Clear,300,2013-02-15 03:54:00
10:15 PM,15.8,6.8,68,30.21,10.0,WNW,16.1,23.0,N/A,,Clear,300,2013-02-15 04:15:00
10:35 PM,15.8,5.0,62,30.21,10.0,WNW,18.4,23.0,N/A,,Clear,300,2013-02-15 04:35:00
10:54 PM,15.8,3.2,58,30.22,10.0,WNW,17.3,24.2,N/A,,Clear,300,2013-02-15 04:54:00
11:15 PM,15.8,5.0,62,30.22,10.0,WNW,16.1,20.7,N/A,,Clear,300,2013-02-15 05:15:00
11:35 PM,15.8,5.0,62,30.23,10.0,WNW,16.1,24.2,N/A,,Clear,300,2013-02-15 05:35:00
11:55 PM,14.0,5.0,67,30.23,10.0,WNW,16.1,-,N/A,,Clear,300,2013-02-15 05:55:00